This is the latest recevied weather packets stored in our database for station/object WB0OCV. If no packets are shown the sender has not sent any weather packets the latest 10 day(s).
| Time | Temp. | Humidity | Pressure | Rain* | Wind** | Luminosity | Snow |
|---|---|---|---|---|---|---|---|
| 1777829022 | 11.11° C | 66% | 1007.5 hPa | 0 mm | - | 607 W/m² | - |
| 1777828718 | 11.11° C | 68% | 1007.4 hPa | 0 mm | - | 662 W/m² | - |
| 1777828415 | 11.11° C | 68% | 1007.6 hPa | 0 mm | - | 551 W/m² | - |
| 1777828112 | 10.56° C | 69% | 1007.4 hPa | 0 mm | - | 562 W/m² | - |
| 1777827808 | 10.56° C | 68% | 1007.5 hPa | 0 mm | - | 987 W/m² | - |
| 1777827505 | 10.56° C | 70% | 1007.6 hPa | 0 mm | - | 522 W/m² | - |
| 1777827204 | 10° C | 71% | 1007.6 hPa | 0 mm | - | 351 W/m² | - |
| 1777826899 | 10.56° C | 69% | 1007.5 hPa | 0 mm | - | 219 W/m² | - |
| 1777826597 | 10.56° C | 69% | 1007.4 hPa | 0 mm | - | 289 W/m² | - |
| 1777826293 | 11.67° C | 67% | 1007.4 hPa | 0 mm | - | 847 W/m² | - |
| 1777825991 | 11.11° C | 68% | 1007.3 hPa | 0 mm | - | 697 W/m² | - |
| 1777825687 | 11.67° C | 72% | 1007.3 hPa | 0 mm | - | 648 W/m² | - |
| 1777825385 | 11.11° C | 68% | 1007.2 hPa | 0 mm | - | 719 W/m² | - |
| 1777825082 | 10.56° C | 68% | 1007.1 hPa | 0 mm | - | 827 W/m² | - |
| 1777824778 | 11.11° C | 68% | 1007.1 hPa | 0 mm | - | 362 W/m² | - |
| 1777824475 | 11.11° C | 70% | 1007 hPa | 0 mm | - | 507 W/m² | - |
| 1777824171 | 10.56° C | 72% | 1006.9 hPa | 0 mm | - | 480 W/m² | - |
| 1777823867 | 10.56° C | 72% | 1007 hPa | 0 mm | - | 591 W/m² | - |
| 1777823565 | 10.56° C | 71% | 1007 hPa | 0 mm | - | 357 W/m² | - |
| 1777823262 | 10.56° C | 72% | 1006.9 hPa | 0 mm | - | 498 W/m² | - |
| 1777822959 | 10° C | 75% | 1007.2 hPa | 0 mm | - | 536 W/m² | - |
| 1777822657 | 10.56° C | 71% | 1007 hPa | 0 mm | - | 133 W/m² | - |
| 1777822355 | 10.56° C | 73% | 1007.2 hPa | 0 mm | - | 407 W/m² | - |
| 1777822052 | 10° C | 72% | 1007.2 hPa | 0 mm | - | 426 W/m² | - |
| 1777821750 | 10° C | 73% | 1007 hPa | 0 mm | - | 361 W/m² | - |
* Rain latest hour (hover to see other rain measurements)
** Current wind speed in m/s (hover to see current wind gust speed)